Simultaneous Nadir Overpasses (SNOs) Predictions

Prediction of SNOs between METOP-C and LANDSAT-8 Satellite Orbit:

Table of predicted SNOs for the next 14.0 days since TLE Epoch: 9/20/2025
Index Date (METOP-C) Time (METOP-C) Lat,Lon (METOP-C) SZA (METOP-C ) Date (LANDSAT-8) Time (LANDSAT-8) Lat,Lon (LANDSAT-8) SZA (LANDSAT-8 ) Distance(km) Time Diff (sec)
1 09/21/2025 02:21:36 -81.10, 4.00 97.38 09/21/2025 02:22:39 -81.09, 3.89 97.37 1.99 63
2 09/21/2025 03:12:15 81.13, 172.08 82.73 09/21/2025 03:12:04 81.12, 172.00 82.72 1.30 11
3 09/23/2025 21:55:58 -81.10, 70.47 96.26 09/23/2025 21:56:55 -81.10, 70.38 96.25 1.64 57
4 09/23/2025 22:46:37 81.13,-121.47 83.86 09/23/2025 22:46:20 81.13,-121.54 83.84 1.28 17
5 09/26/2025 17:30:18 -81.11, 137.25 95.09 09/26/2025 17:31:09 -81.11, 137.08 95.09 3.01 51
6 09/26/2025 18:20:58 81.13, -55.07 84.97 09/26/2025 18:20:35 81.12, -55.23 84.94 2.93 23
7 09/29/2025 13:04:41 -81.10,-156.77 94.04 09/29/2025 13:05:25 -81.10,-156.73 94.01 0.66 44
8 09/29/2025 13:55:20 81.12, 11.27 86.07 09/29/2025 13:54:50 81.12, 11.30 86.06 0.52 30
9 10/02/2025 08:39:03 -81.09, -90.47 92.94 10/02/2025 08:39:40 -81.10, -90.32 92.91 2.54 37



Historial Predications of SNOs between METOP-C and LANDSAT-8
